This demonstration page uses our WeatherBlox Daily Observations layout. Learn more.

38.88101, -77.10428

Hourly Observations for April 9, 2018

Temp ( °F °C ) Dew Point ( °F °C ) Humidity (%) Winds ( mph kmh ) Pressure ( in mb ) Visibility ( mi km ) Precip ( " mm )
12:52 am 00:52 Cloudy 40 4.4 17 -8.3 40 40 NNE 5 7 30.12 1020 10 16.0934 0 0
1:52 am 01:52 Cloudy 42 5.6 15 -9.4 33 33 N 8 13 30.15 1021 10 16.0934 0 0
2:52 am 02:52 Cloudy 41 5 16 -8.9 36 36 NE 6 9 30.15 1021 10 16.0934 0 0
3:52 am 03:52 Cloudy 41 5 16 -8.9 36 36 ENE 8 13 30.15 1021 10 16.0934 0 0
4:52 am 04:52 Cloudy 40 4.4 17 -8.3 40 40 ENE 8 13 30.16 1021 10 16.0934 0 0
5:52 am 05:52 Cloudy 40 4.4 15 -9.4 36 36 NE 9 15 30.18 1022 10 16.0934 0 0
6:52 am 06:52 Cloudy 39 3.9 16 -8.9 39 39 NE 10 17 30.21 1023 10 16.0934 0 0
7:05 am 07:05 Cloudy 39 3.9 17 -8.3 41 41 NE 12 19 30.21 1023 10 16.0934 0 0
7:52 am 07:52 Cloudy 40 4.4 17 -8.3 40 40 NE 12 19 30.25 1024 10 16.0934 0 0
8:52 am 08:52 Cloudy 39 3.9 22 -5.6 50 50 SSE 5 7 30.26 1025 10 16.0934 0 0
9:52 am 09:52 Cloudy 41 5 23 -5 49 49 SE 7 11 30.25 1024 10 16.0934 0 0
10:52 am 10:52 Cloudy 41 5 25 -3.9 53 53 SE 10 17 30.24 1024 10 16.0934 0 0
11:52 am 11:52 Cloudy 43 6.1 27 -2.8 53 53 ESE 9 15 30.22 1024 10 16.0934 0 0
12:52 pm 12:52 Cloudy 43 6.1 27 -2.8 53 53 SSE 9 15 30.21 1023 10 16.0934 0 0
1:52 pm 13:52 Cloudy 43 6.1 28 -2.2 56 56 SSE 8 13 30.19 1022 10 16.0934 0 0
2:52 pm 14:52 Cloudy 43 6.1 28 -2.2 56 56 SE 9 15 30.18 1022 10 16.0934 0 0
3:52 pm 15:52 Cloudy 44 6.7 29 -1.7 55 55 E 5 7 30.16 1021 10 16.0934 0 0
4:52 pm 16:52 Cloudy 45 7.2 28 -2.2 52 52 E 5 7 30.16 1021 10 16.0934 0 0
5:52 pm 17:52 Cloudy 46 7.8 28 -2.2 50 50 Calm 30.15 1021 10 16.0934 0 0
6:52 pm 18:52 Cloudy 46 7.8 30 -1.1 54 54 S 5 7 30.14 1021 10 16.0934 0 0
7:52 pm 19:52 Cloudy 44 6.7 33 0.6 65 65 SSW 7 11 30.14 1021 10 16.0934 0 0
8:36 pm 20:36 Cloudy with Light Rain 44 6.7 34 1.1 68 68 S 3 6 30.18 1022 10 16.0934 0 0.0254
8:52 pm 20:52 Cloudy with Light Rain 43 6.1 35 1.7 74 74 SSW 5 7 30.17 1022 10 16.0934 0 0.0254
9:13 pm 21:13 Cloudy with Light Rain 43 6.1 35 1.7 74 74 Calm 30.18 1022 10 16.0934 0 0.0254
9:52 pm 21:52 Cloudy with Light Rain 42 5.6 36 2.2 79 79 Calm 30.19 1022 8 12.87472 0.01 0.254
10:14 pm 22:14 Cloudy with Light Rain 42 5.6 36 2.2 79 79 N 3 6 30.18 1022 7 11.26538 0 0.0254
10:52 pm 22:52 Cloudy with Light Drizzle 42 5.6 38 3.3 85 85 N 5 7 30.19 1022 4 6.43736 0 0.0254
11:21 pm 23:21 Cloudy with Light Drizzle 41 5 38 3.3 89 89 NNW 6 9 30.18 1022 3 4.82802 0.01 0.254
11:52 pm 23:52 Cloudy with Light Drizzle 41 5 37 2.8 86 86 NNW 5 7 30.19 1022 3 4.82802 0.01 0.254

Powered by AerisWeather